Simultaneous Nadir Overpasses (SNOs) Predictions

Prediction of SNOs between METOP-A and NOAA-19 Satellite Orbit:

Table of predicted SNOs for the next 14.0 days since TLE Epoch: 6/27/2016
Index Date (METOP-A) Time (METOP-A) Lat,Lon (METOP-A) SZA (METOP-A ) Date (NOAA-19) Time (NOAA-19) Lat,Lon (NOAA-19) SZA (NOAA-19 ) Distance(km) Time Diff (sec)
1 07/01/2016 04:03:30 -76.59, -58.94 126.56 07/01/2016 04:02:22 -76.59, -61.77 126.56 73.04 68
2 07/01/2016 04:54:19 76.18, 106.91 53.03 07/01/2016 04:53:20 76.19, 106.98 53.04 2.18 59
3 07/01/2016 05:45:00 -76.21, -85.66 126.94 07/01/2016 05:44:15 -76.19, -85.75 126.96 3.19 45
4 07/01/2016 06:35:41 76.16, 81.50 53.02 07/01/2016 06:35:22 76.19, 81.48 53.05 3.12 19
5 07/01/2016 07:26:23 -76.15,-111.23 127.00 07/01/2016 07:26:16 -76.15,-111.09 127.00 3.73 7
6
